Location: Boiro
(42.6475°N, 8.8834°W)
Time: 15:10:14
(UTC+01:00)

Vanguard 2 - Pass Details

Date: 06 December 2021
Orbit: 553 x 2936 km, 32.9° (Epoch: 21 January)

Event Time Altitude Azimuth Distance (km) Brightness Sun altitude
Rises 19:47:57 0° 260° (W) 3,930 12.9 -18.8°
Reaches altitude 10° 19:51:28 10° 241° (WSW) 3,337 11.9 -19.5°
Maximum altitude 19:56:46 18° 203° (SSW) 3,303 11.1 -20.4°
Drops below altitude 10° 20:03:41 10° 167° (SSE) 4,522 11.4 -21.7°
Sets 20:09:48 0° 152° (SSE) 6,005 11.9 -22.8°
